Miscellaneous Local Product
Issued by NWS North Platte, NE

Home | Current Version | Previous Version | Text Only | Print | Product List | Glossary On
Versions: 1 2 3 4 5 6 7 8 9 10 11 12 13 14 15 16 17 18 19 20 21 22 23 24 25 26 27 28 29 30 31 32 33 34 35 36 37 38 39 40 41 42 43 44 45 46 47 48 49 50
000
AXUS43 KLBF 231210
MISLBF


WESTERN AND NORTH CENTRAL NEBRASKA HOURLY WEATHER ROUNDUP
NATIONAL WEATHER SERVICE NORTH PLATTE NE
700 AM CDT THU OCT 23 2014

***STATIONS NOT REPORTING VARIABLES SUCH AS SKY/WEATHER OR
PRESSURE ARE PROVIDED BY THE NEBRASKA DEPARTMENT OF
ROADS...RAWS...AND APRS NETWORKS...AND ARE NOT UNDER
NATIONAL WEATHER SERVICE QUALITY CONTROL***

...OBSERVATIONS IN AND NEAR THE EASTERN PANHANDLE OF NEBRASKA...

CITY           SKY/WX    TMP DP  RH WIND       PRES   REMARKS
PINE RIDGE     CLEAR     27  24  89 CALM      30.03S
CHADRON        PTCLDY    31  24  75 SW9       30.05R WCI  23
ALLIANCE       CLEAR     25  21  85 W5        30.08R WCI  19
SIDNEY         CLEAR     33  30  88 W9        30.11S WCI  25
WHITECLAY        N/A     28  24  84 SE5         N/A  WCI  23
RUSHVILLE        N/A     24  23  96 W10         N/A  WCI  13
CRESCENT LAKE    N/A     40  33  77 CALM        N/A
LISCO            N/A     32  27  80 CALM        N/A
BIG SPRINGS      N/A     36  34  91 NE3         N/A
LEWELLEN         N/A     33  31  94 CALM        N/A
$$

...OBSERVATIONS IN NORTH CENTRAL NEBRASKA...

CITY           SKY/WX    TMP DP  RH WIND       PRES   REMARKS
VALENTINE      CLEAR     31  30  96 CALM      30.02F FOG
THEDFORD       LGT RAIN  49  48  99 W7        30.06F VSB 1/4
AINSWORTH      FOG       38  37  98 S5        30.03S VSB 1/2 WCI  34
O`NEILL        FOG       37  37 100 SW5       30.04S VSB 1/2 WCI  33
ORD            FOG       39  39 100 CALM      30.06S VSB 1/4
BROKEN BOW     FOG       40  39  97 CALM      30.06F VSB 1/4
BROWNLEE         N/A     48  47  98 SW5         N/A
SPRINGVIEW       N/A     30  29  94 CALM        N/A
BREWSTER         N/A     37  37  99 CALM        N/A
ROSE             N/A     41  40  99 S3          N/A
NEWPORT          N/A     36  36  99 S6          N/A  WCI  31
SARGENT          N/A     36  35  98 CALM        N/A
COMSTOCK         N/A     42  42  99 SW5         N/A
CHAMBERS         N/A     40  39  98 S3          N/A
EWING            N/A     35  34  96 CALM        N/A
$$

...OBSERVATIONS IN SOUTHWEST NEBRASKA AND FAR NORTHEAST COLORADO...

CITY           SKY/WX    TMP DP  RH WIND       PRES   REMARKS
WRAY           FAIR      39  34  81 W8        30.11S WCI  34
HOLYOKE        FAIR      41  34  75 W7        30.10S
IMPERIAL       CLEAR     39  31  72 W7        30.10S WCI  34
OGALLALA       CLEAR     34  33  95 W6        30.09S WCI  29
NORTH PLATTE   FOG       36  36 100 NW5       30.09S VSB 1/4 WCI  32
MCCOOK         FOG       46  45  96 W5        30.10S VSB 1/4
LEXINGTON      FOG       47  47  98 CALM      30.07F VSB 1/4
PAXTON           N/A     38  33  84 CALM        N/A
SUTHERLAND       N/A     30  28  93 CALM        N/A
BRADY            N/A     44  42  94 CALM        N/A
GOTHENBURG       N/A     48  45  91 CALM        N/A
CALLAWAY         N/A     42  41  96 S3          N/A
$$

...SOME WEATHER OBSERVATIONS FROM AROUND THE REGION...

CITY           SKY/WX    TMP DP  RH WIND       PRES   REMARKS
DENVER         MOCLDY    45  36  70 SW8       30.16R
LARAMIE        PTCLDY    41  27  57 NE5       30.21R
CHEYENNE       PTCLDY    38  30  73 W10       30.15S WCI  31
SCOTTSBLUFF    PTCLDY    32  29  88 NE5       30.10R WCI  27
RAPID CITY     CLEAR     38  25  59 NW9       29.98S WCI  31
PIERRE         CLEAR     37  33  85 CALM      29.96S
WINNER         FAIR      50  43  77 SW8       29.99F
SIOUX FALLS    FOG       44  44 100 CALM      30.02R VSB 1/8
OMAHA          CLOUDY    62  58  86 SW5       30.03S
GRAND ISLAND   FOG       46  44  93 W5        30.07S VSB 1/4
KANSAS CITY    CLOUDY    56  56 100 SE3       30.07F
WICHITA        CLOUDY    62  58  86 S10       30.07F
HAYS           CLOUDY    54  48  82 CALM      30.08R VSB 1/2
LIBERAL          N/A     52  46  82 SW6       30.08S VSB 1/2
GOODLAND       MOCLDY    44  42  93 W5        30.12S
$$



USA.gov is the U.S. government's official web portal to all federal, state and local government web resources and services.